| time (UTC) | temp F | wind direction | speed knots | gust knots | rain 1hr in | rain 24hr in | rain mn in | humidity % | barometer mb |
| 20260505031527 | 48 | 251 | 6.1 | 12.2 | 0.00 | 0.24 | 0.00 | 79 | 1006.4 |
| 20260505030024 | 48 | 267 | 7.0 | 14.8 | 0.00 | 0.26 | 0.24 | 78 | 1006.1 |
| 20260505024522 | 48 | 258 | 7.8 | 11.3 | 0.00 | 0.26 | 0.24 | 78 | 1005.9 |
| 20260505023021 | 48 | 249 | 5.2 | 9.6 | 0.00 | 0.26 | 0.24 | 77 | 1005.9 |
| 20260505021520 | 48 | 254 | 7.0 | 11.3 | 0.00 | 0.26 | 0.24 | 76 | 1005.6 |
| 20260505020031 | 49 | 241 | 7.0 | 13.9 | 0.00 | 0.27 | 0.24 | 75 | 1005.4 |
| 20260505014518 | 49 | 235 | 7.0 | 12.2 | 0.00 | 0.27 | 0.24 | 74 | 1005.2 |
| 20260505013018 | 50 | 235 | 5.2 | 11.3 | 0.00 | 0.27 | 0.24 | 72 | 1005.4 |
| 20260505011517 | 51 | 251 | 7.8 | 14.8 | 0.00 | 0.27 | 0.24 | 70 | 1005.1 |
| 20260505010016 | 51 | 260 | 7.0 | 15.6 | 0.00 | 0.30 | 0.24 | 70 | 1005.0 |
| 20260505004518 | 51 | 244 | 7.0 | 15.6 | 0.00 | 0.30 | 0.24 | 69 | 1005.1 |
| 20260505003013 | 52 | 261 | 7.8 | 16.5 | 0.00 | 0.30 | 0.24 | 68 | 1004.8 |
| 20260505001512 | 52 | 241 | 6.1 | 14.8 | 0.00 | 0.30 | 0.24 | 67 | 1004.6 |
| 20260505000012 | 52 | 261 | 12.2 | 18.2 | 0.00 | 0.37 | 0.24 | 64 | 1004.5 |
| 20260504234511 | 53 | 262 | 13.0 | 20.0 | 0.00 | 0.37 | 0.24 | 59 | 1004.2 |
| 20260504233008 | 53 | 262 | 11.3 | 18.2 | 0.00 | 0.37 | 0.24 | 52 | 1004.2 |
| 20260504231506 | 53 | 262 | 7.0 | 10.4 | 0.00 | 0.37 | 0.24 | 51 | 1003.9 |
| 20260504230005 | 54 | 287 | 9.6 | 15.6 | 0.00 | 0.61 | 0.24 | 48 | 1003.7 |
| 20260504224502 | 54 | 258 | 5.2 | 10.4 | 0.00 | 0.61 | 0.24 | 48 | 1003.2 |
| 20260504223102 | 54 | 289 | 7.0 | 14.8 | 0.00 | 0.61 | 0.24 | 46 | 1003.1 |
| 20260504221559 | 55 | 279 | 8.7 | 20.9 | 0.00 | 0.61 | 0.24 | 46 | 1002.8 |
| 20260504220157 | 55 | 274 | 12.2 | 22.6 | 0.00 | 0.61 | 0.24 | 45 | 1002.6 |
| 20260504214558 | 55 | 267 | 12.2 | 26.9 | 0.00 | 0.83 | 0.24 | 46 | 1002.5 |
| 20260504213109 | 56 | 261 | 13.9 | 33.9 | 0.00 | 0.83 | 0.24 | 45 | 1002.4 |
| 20260504211552 | 56 | 257 | 15.6 | 22.6 | 0.00 | 0.83 | 0.24 | 45 | 1002.4 |
| 20260504210051 | 56 | 270 | 16.5 | 28.7 | 0.00 | 0.94 | 0.24 | 45 | 1002.1 |
| 20260504204552 | 56 | 260 | 14.8 | 29.5 | 0.00 | 0.94 | 0.24 | 46 | 1001.7 |
| 20260504203043 | 56 | 275 | 15.6 | 24.3 | 0.00 | 0.94 | 0.24 | 47 | 1001.7 |
| 20260504201540 | 55 | 269 | 13.9 | 26.1 | 0.00 | 0.94 | 0.24 | 50 | 1001.5 |
| 20260504200036 | 55 | 281 | 14.8 | 28.7 | 0.00 | 1.00 | 0.24 | 50 | 1001.3 |
| 20260504194534 | 54 | 281 | 19.1 | 27.8 | 0.00 | 1.00 | 0.24 | 51 | 1001.2 |
| 20260504193041 | 54 | 279 | 15.6 | 26.9 | 0.00 | 1.00 | 0.24 | 55 | 1001.0 |
| 20260504191533 | 54 | 281 | 14.8 | 29.5 | 0.00 | 1.00 | 0.24 | 58 | 1000.7 |
| 20260504190033 | 54 | 248 | 15.6 | 27.8 | 0.00 | 1.02 | 0.24 | 60 | 1000.7 |
| 20260504184527 | 54 | 244 | 17.4 | 27.8 | 0.00 | 1.02 | 0.24 | 61 | 1000.3 |
| 20260504183026 | 54 | 268 | 11.3 | 22.6 | 0.00 | 1.02 | 0.24 | 61 | 1000.3 |
| 20260504181522 | 53 | 274 | 13.0 | 21.7 | 0.00 | 1.02 | 0.24 | 65 | 1000.2 |
| 20260504180020 | 52 | 288 | 12.2 | 26.9 | 0.00 | 1.02 | 0.24 | 67 | 1000.1 |
| 20260504174520 | 52 | 256 | 15.6 | 25.2 | 0.00 | 1.02 | 0.24 | 68 | 999.9 |
| 20260504173016 | 52 | 276 | 14.8 | 23.5 | 0.00 | 1.02 | 0.24 | 71 | 999.8 |
| 20260504171511 | 51 | 269 | 12.2 | 26.1 | 0.00 | 1.02 | 0.24 | 71 | 999.7 |
| 20260504081528 | 36 | 304 | 24.3 | 41.7 | 0.01 | 0.91 | 0.13 | 94 | 982.9 |
| 20260504060107 | 38 | 262 | 13.0 | 24.3 | 0.02 | 0.87 | 0.09 | 97 | 978.3 |
| 20260504044544 | 39 | 256 | 10.4 | 19.1 | 0.03 | 0.84 | 0.06 | 97 | 976.3 |
| 20260504043052 | 38 | 257 | 9.6 | 15.6 | 0.04 | 0.83 | 0.06 | 97 | 975.7 |
| 20260504041538 | 38 | 271 | 9.6 | 17.4 | 0.03 | 0.82 | 0.04 | 97 | 974.9 |
| 20260504040035 | 38 | 264 | 6.1 | 13.0 | 0.03 | 0.81 | 0.03 | 97 | 974.3 |
| 20260504034536 | 38 | 305 | 7.8 | 10.4 | 0.04 | 0.81 | 0.03 | 97 | 973.8 |
| 20260504033030 | 39 | 344 | 2.6 | 5.2 | 0.03 | 0.80 | 0.02 | 97 | 973.5 |